クロンメリン彗星

27P/Crommelin (2011)

English version
Home page
Updated on February 2, 2012

---------------------------------------------------------------------

・ プロフィール

・ 写真集

・ 軌道要素

Epoch 2011 July 18.0 TT = JDT 2455760.5
T 2011 Aug. 3.80889 TT                                  MPC
q   0.7478756            (2000.0)            P               Q
n   0.03529799     Peri.  195.98011     +0.09146314     -0.88487056
a   9.2038479      Node   250.63792     +0.95843442     +0.20270924
e   0.9187432      Incl.   28.95695     +0.27025535     -0.41941991
P  27.9
From 324 observations 1956 Oct. 5-2011 July 25, mean residual 1".1.
     Nongravitational parameters A1 = +0.12, A2 = -0.0003.

・ 星図

・ 光度変化

        m1 = 12.0 + 5 logΔ + 20.0 log r  [   ,  0]  (              〜2011年 8月 3日)
        m1 = 10.7 + 5 logΔ + 10.0 log r  [  0,103]  (2011年 8月 3日〜2011年11月14日)
        m1 =  8.0 + 5 logΔ + 20.0 log r  [103,   ]  (2011年11月14日〜              )

---------------------------------------------------------------------

軌道要素はM.P.E.C. 2012-A52に掲載されたものです。
星図は StellaNavigator Ver.2.0 for Windows (アストロアーツ 編著 / アスキー出版局刊) で作成したものです。
光度グラフはComet for Windowsで作成したものです。

---------------------------------------------------------------------

Copyright(C) Seiichi Yoshida (comet@aerith.net). All rights reserved.